| time (UTC) | temp F | wind direction | speed knots | gust knots | rain 1hr in | rain 24hr in | rain mn in | humidity % | barometer mb |
| 20260506044548 | 46 | 280 | 0.0 | 0.0 | 0.00 | 0.09 | 0.00 | 94 | 1007.0 |
| 20260506043016 | 46 | 280 | 0.0 | 0.0 | 0.00 | 0.09 | 0.00 | 93 | 1006.9 |
| 20260506041501 | 46 | 280 | 0.0 | 0.0 | 0.00 | 0.09 | 0.00 | 93 | 1007.1 |
| 20260506040100 | 46 | 280 | 0.0 | 0.0 | 0.00 | 0.09 | 0.00 | 93 | 1007.2 |
| 20260506034627 | 46 | 280 | 0.0 | 0.0 | 0.00 | 0.09 | 0.00 | 93 | 1007.4 |
| 20260506033103 | 47 | 280 | 0.0 | 0.0 | 0.00 | 0.09 | 0.00 | 93 | 1007.3 |
| 20260506031558 | 47 | 280 | 0.0 | 0.0 | 0.00 | 0.09 | 0.00 | 93 | 1007.0 |
| 20260506030051 | 49 | 280 | 0.0 | 0.0 | 0.00 | 0.09 | 0.00 | 93 | 1007.1 |
| 20260506024548 | 49 | 280 | 0.0 | 0.0 | 0.00 | 0.09 | 0.00 | 93 | 1007.1 |
| 20260506023105 | 49 | 279 | 0.0 | 0.9 | 0.00 | 0.09 | 0.00 | 93 | 1007.6 |
| 20260506021545 | 49 | 279 | 0.0 | 0.0 | 0.00 | 0.09 | 0.00 | 93 | 1007.6 |
| 20260506020026 | 50 | 279 | 0.0 | 0.0 | 0.00 | 0.09 | 0.00 | 93 | 1007.7 |
| 20260506014529 | 50 | 280 | 0.0 | 0.0 | 0.00 | 0.09 | 0.00 | 93 | 1007.5 |
| 20260506013014 | 50 | 280 | 0.0 | 0.0 | 0.00 | 0.09 | 0.00 | 93 | 1007.5 |
| 20260506011516 | 50 | 280 | 0.0 | 0.0 | 0.00 | 0.09 | 0.00 | 93 | 1007.4 |
| 20260506010013 | 50 | 280 | 0.0 | 0.0 | 0.00 | 0.09 | 0.00 | 93 | 1007.4 |
| 20260506004520 | 50 | 279 | 0.0 | 3.5 | 0.00 | 0.09 | 0.00 | 94 | 1007.6 |
| 20260506003009 | 51 | 282 | 0.9 | 3.5 | 0.00 | 0.09 | 0.00 | 93 | 1007.8 |
| 20260506001505 | 51 | 297 | 0.0 | 1.7 | 0.00 | 0.09 | 0.00 | 93 | 1008.0 |
| 20260506000002 | 51 | 297 | 0.0 | 0.0 | 0.00 | 0.09 | 0.00 | 93 | 1008.2 |
| 20260505234507 | 51 | 297 | 0.0 | 4.3 | 0.00 | 0.09 | 0.00 | 93 | 1008.3 |
| 20260505233050 | 51 | 276 | 0.0 | 0.0 | 0.00 | 0.09 | 0.00 | 93 | 1008.4 |
| 20260505231549 | 51 | 276 | 0.0 | 0.0 | 0.00 | 0.09 | 0.00 | 93 | 1008.4 |
| 20260505230048 | 51 | 276 | 0.0 | 0.0 | 0.00 | 0.09 | 0.00 | 93 | 1008.3 |
| 20260505224547 | 51 | 276 | 0.0 | 0.0 | 0.00 | 0.09 | 0.00 | 93 | 1008.4 |
| 20260505223045 | 52 | 276 | 0.0 | 0.0 | 0.00 | 0.09 | 0.00 | 93 | 1008.3 |
| 20260505221543 | 52 | 276 | 0.0 | 0.0 | 0.00 | 0.09 | 0.00 | 93 | 1008.3 |
| 20260505220056 | 52 | 276 | 0.0 | 0.0 | 0.00 | 0.09 | 0.00 | 93 | 1008.3 |
| 20260505214541 | 52 | 276 | 0.0 | 0.0 | 0.00 | 0.09 | 0.09 | 93 | 1008.4 |
| 20260505213029 | 52 | 276 | 0.0 | 2.6 | 0.00 | 0.09 | 0.09 | 93 | 1008.4 |
| 20260505211529 | 52 | 276 | 0.0 | 2.6 | 0.00 | 0.09 | 0.09 | 92 | 1008.4 |
| 20260505210028 | 52 | 276 | 0.0 | 3.5 | 0.00 | 0.09 | 0.09 | 92 | 1008.3 |
| 20260505204527 | 53 | 304 | 0.0 | 3.5 | 0.00 | 0.09 | 0.09 | 91 | 1008.0 |
| 20260505203027 | 53 | 307 | 0.0 | 0.9 | 0.00 | 0.09 | 0.09 | 91 | 1007.9 |
| 20260505201527 | 53 | 316 | 0.0 | 0.0 | 0.00 | 0.09 | 0.09 | 91 | 1007.9 |
| 20260505200026 | 53 | 316 | 0.0 | 0.0 | 0.00 | 0.09 | 0.09 | 90 | 1007.7 |
| 20260505194533 | 54 | 316 | 0.0 | 0.0 | 0.01 | 0.09 | 0.09 | 89 | 1007.5 |
| 20260505193024 | 54 | 316 | 0.0 | 0.0 | 0.01 | 0.09 | 0.09 | 89 | 1007.4 |
| 20260505191507 | 54 | 316 | 0.0 | 0.0 | 0.02 | 0.09 | 0.09 | 89 | 1007.4 |
| 20260505190055 | 55 | 316 | 0.0 | 0.0 | 0.02 | 0.09 | 0.09 | 88 | 1007.2 |
| 20260505184602 | 55 | 316 | 0.0 | 0.0 | 0.02 | 0.09 | 0.09 | 88 | 1007.4 |
| 20260505183054 | 56 | 316 | 0.0 | 0.0 | 0.02 | 0.09 | 0.09 | 88 | 1007.3 |
| 20260505181554 | 56 | 316 | 0.0 | 0.0 | 0.01 | 0.08 | 0.08 | 88 | 1007.2 |
| 20260505180058 | 57 | 316 | 0.0 | 2.6 | 0.01 | 0.08 | 0.08 | 88 | 1007.6 |
| 20260505174609 | 57 | 33 | 0.0 | 0.0 | 0.00 | 0.07 | 0.07 | 88 | 1007.3 |
| 20260505173052 | 57 | 33 | 0.0 | 0.0 | 0.00 | 0.07 | 0.07 | 90 | 1007.2 |
| 20260505171551 | 57 | 34 | 0.0 | 0.0 | 0.00 | 0.07 | 0.07 | 91 | 1007.1 |
| 20260505170050 | 56 | 34 | 0.0 | 0.0 | 0.00 | 0.07 | 0.07 | 91 | 1007.0 |
| 20260505164541 | 56 | 34 | 0.0 | 0.0 | 0.00 | 0.07 | 0.07 | 91 | 1006.9 |
| 20260505163043 | 56 | 34 | 0.0 | 0.0 | 0.00 | 0.07 | 0.07 | 92 | 1006.9 |
| 20260505161540 | 56 | 34 | 0.0 | 2.6 | 0.00 | 0.07 | 0.07 | 92 | 1007.0 |
| 20260505153048 | 55 | 266 | 0.0 | 0.0 | 0.01 | 0.07 | 0.07 | 91 | 1007.4 |
| 20260505151542 | 55 | 266 | 0.0 | 1.7 | 0.02 | 0.07 | 0.07 | 91 | 1007.6 |
| 20260505124509 | 67 | 269 | 0.0 | 4.3 | 0.00 | 0.00 | 0.00 | 66 | 1006.9 |
| 20260505123007 | 67 | 269 | 0.0 | 4.3 | 0.00 | 0.00 | 0.00 | 63 | 1006.9 |
| 20260505121509 | 67 | 273 | 0.0 | 4.3 | 0.00 | 0.00 | 0.00 | 61 | 1006.8 |
| 20260505120005 | 68 | 264 | 0.0 | 5.2 | 0.00 | 0.00 | 0.00 | 59 | 1006.8 |
| 20260505114504 | 68 | 319 | 0.0 | 3.5 | 0.00 | 0.00 | 0.00 | 54 | 1006.9 |
| 20260505113003 | 68 | 257 | 0.0 | 4.3 | 0.00 | 0.00 | 0.00 | 56 | 1006.9 |
| 20260505111502 | 68 | 344 | 0.0 | 1.7 | 0.00 | 0.00 | 0.00 | 54 | 1007.0 |
| 20260505101544 | 69 | 290 | 0.0 | 4.3 | 0.00 | 0.00 | 0.00 | 54 | 1007.5 |
| 20260505100041 | 69 | 276 | 0.0 | 3.5 | 0.00 | 0.00 | 0.00 | 56 | 1007.7 |
| 20260505094539 | 68 | 5 | 0.0 | 0.0 | 0.00 | 0.00 | 0.00 | 60 | 1007.8 |
| 20260505093037 | 67 | 304 | 0.0 | 0.0 | 0.00 | 0.00 | 0.00 | 60 | 1007.9 |
| 20260505091535 | 66 | 304 | 0.0 | 1.7 | 0.00 | 0.00 | 0.00 | 63 | 1008.1 |
| 20260505090016 | 65 | 304 | 0.0 | 0.0 | 0.00 | 0.00 | 0.00 | 65 | 1008.3 |
| 20260505084518 | 65 | 304 | 0.0 | 0.9 | 0.00 | 0.00 | 0.00 | 64 | 1008.3 |
| 20260505083015 | 65 | 304 | 0.0 | 0.0 | 0.00 | 0.00 | 0.00 | 64 | 1008.3 |
| 20260505081516 | 65 | 304 | 0.0 | 1.7 | 0.00 | 0.00 | 0.00 | 65 | 1008.4 |
| 20260505080025 | 64 | 300 | 0.0 | 2.6 | 0.00 | 0.00 | 0.00 | 69 | 1008.4 |
| 20260505074504 | 62 | 292 | 0.0 | 0.0 | 0.00 | 0.00 | 0.00 | 74 | 1008.6 |
| 20260505073107 | 60 | 292 | 0.0 | 0.0 | 0.00 | 0.00 | 0.00 | 78 | 1008.7 |
| 20260505071555 | 59 | 292 | 0.0 | 2.6 | 0.00 | 0.00 | 0.00 | 83 | 1008.8 |
| 20260505070048 | 57 | 292 | 0.0 | 0.0 | 0.00 | 0.00 | 0.00 | 88 | 1008.9 |
| 20260505064554 | 55 | 292 | 0.0 | 0.0 | 0.00 | 0.00 | 0.00 | 91 | 1008.9 |
| 20260505063038 | 54 | 292 | 0.0 | 0.0 | 0.00 | 0.00 | 0.00 | 92 | 1009.0 |
| 20260505061540 | 53 | 292 | 0.0 | 0.0 | 0.00 | 0.00 | 0.00 | 92 | 1009.1 |
| 20260505060033 | 52 | 292 | 0.0 | 0.0 | 0.00 | 0.00 | 0.00 | 92 | 1009.2 |